Regional Weather Roundup
Issued by NWS Mobile, AL

Home | Current Version | Previous Version | Text Only | Print | Product List | Glossary On
Versions: 1 2 3 4 5 6 7 8 9 10 11 12 13 14 15 16 17 18 19 20 21 22 23 24 25 26 27 28 29 30 31 32 33 34 35 36 37 38 39 40 41 42 43 44 45 46 47 48 49 50
000
ASUS44 KMOB 261712
RWRMOB
REGIONAL WEATHER ROUNDUP
NATIONAL WEATHER SERVICE MOBILE AL
1200 PM CDT SUN APR 26 2015

ALZ061>064-261800-
COASTAL ALABAMA


CITY           SKY/WX    TMP DP  RH WIND       PRES   REMARKS
MOBILE REG APT MOSUNNY   82  71  69 W5        29.77F
BROOKLEY FIELD MOSUNNY   80  72  76 SE9       29.78S
GULF SHORES    SUNNY     82  69  66 SW9       29.76F

$$

ALZ051>060-261800-
INTERIOR SOUTHWEST AND SOUTH CENTRAL ALABAMA


CITY           SKY/WX    TMP DP  RH WIND       PRES   REMARKS
ANDALUSIA/OPP  MOSUNNY   86  68  54 VRB6      29.75F
EVERGREEN      MOSUNNY   83  69  62 SW3       29.76F
FLORALA        SUNNY     82  66  58 SW6       29.77F
GREENVILLE     FAIR      83  62  49 VRB5      29.74F

$$

FLZ001>006-261800-
WESTERN FLORIDA PANHANDLE


CITY           SKY/WX    TMP DP  RH WIND       PRES   REMARKS
CRESTVIEW      MOSUNNY   83  68  60 SW7       29.77F
DESTIN         MOSUNNY   81  70  69 VRB5      29.76F
DUKE FIELD     PTSUNNY   82  66  58 SW6       29.76F
MARY ESTHER    MOSUNNY   81  67  61 SW8       29.75F
MILTON         SUNNY     85  69  58 W7        29.77S
PENSACOLA      SUNNY     83  68  60 SW6       29.76F
NAS PENSACOLA  MOSUNNY   82  71  69 S9        29.76F
VALPARAISO     MOSUNNY   80  70  73 W7        29.76F

$$

...MARINE OBSERVATIONS...

STATION/POSITION TIME  SKY/WX   TEMP    WIND        PRES    VSBY
                                AIR SEA DIR/SP/G
                 (UTC)          (F)     (DEG/KT/KT) (MB)    (MI)
PASCAGOULA       1600            77     260/  7/ 10 1008.4R
PETIT BOIS ISL   1600            76     220/  3/  4 1008.8F
E DAUPHIN ISLAND 1700            77     230/  6/  9 1007.9F
MIDDLE BAY LIGHT 1600            74     170/  9     1008.1S
USCG MOBILE BAY  1600            76 74  140/  4/  6 1007.2F
STATE DOCKS      1600            77 70              1007.9F
MEAHER PARK      1600            74     160/  6     1007.8F
FORT MORGAN      1600            76     240/  6/  7 1008.2F
12 S ORANGE BCH  1650            75 76  250/  4/  6 1007.6F
WVE H/P(F/S)=  3/ 8

PENSACOLA BAY    1612            83 75  230/  1/  4 1008.7S
64 S DAUPHIN ISL 1650            77 78  260/  4/  4 1008.6F
WVE H/P(F/S)=  4/ 8

67 S FORT MORGAN 1630            78                 1008.8F
115 SE PENSACOLA 1650            78 76  250/  6/  8 1009.0F
WVE H/P(F/S)=  5/ 7

MID GULF/42001   1650            82 81  190/ 12/ 14 1008.8F
WVE H/P(F/S)=  3/ 5

EAST GULF/42003  1650            81 79  220/ 14/ 16 1009.9F
WVE H/P(F/S)=  4/ 5


$$

...NEARBY LOCATIONS

CITY           SKY/WX    TMP DP  RH WIND       PRES   REMARKS
GULFPORT       MOSUNNY   81  70  69 VRB3      29.77F
BILOXI         SUNNY     80  73  78 SW7       29.77F
PASCAGOULA     MOSUNNY   82  72  71 VRB3      29.77F
HATTIESBURG    SUNNY     84  64  50 CALM      29.78S
LAUREL         SUNNY     82  64  54 NW5       29.79S
MERIDIAN       MOSUNNY   83  63  50 W6        29.75F
MERIDIAN NAS   SUNNY     84  59  42 NW9       29.75F
MONTGOMERY     SUNNY     81  65  58 W5        29.74F
MAXWELL AFB    SUNNY     80  67  64 SW6       29.73F
TROY           SUNNY     82  65  56 VRB5      29.75F
FORT RUCKER    MOSUNNY   83  68  60 W8        29.74F
DALEVILLE      MOSUNNY   82  66  57 W8        29.75F
DOTHAN         MOSUNNY   82  68  62 W9        29.79F

$$

...OTHER SURROUNDING LOCATIONS...

CITY           SKY/WX    TMP DP  RH WIND       PRES   REMARKS
BIRMINGHAM     MOSUNNY   75  65  70 VRB7      29.75F
TUSCALOOSA     SUNNY     79  64  60 W3        29.73F
COLUMBUS GA    MOSUNNY   79  64  60 W8        29.72F
PANAMA CITY    NOT AVBL
TALLAHASSEE    MOSUNNY   85  67  54 W7        29.75F
BATON ROUGE    CLOUDY    75  69  81 CALM      29.80S HAZE
NEW ORLEANS    PTSUNNY   79  70  74 NW6       29.78F
SLIDELL        MOSUNNY   79  71  76 CALM      29.78F
JACKSON        MOSUNNY   83  60  45 W7        29.76S
MCCOMB         MOSUNNY   80  71  74 VRB3      29.79S

$$

...SURROUNDING MARINE OBSERVATIONS...

STATION/POSITION TIME  SKY/WX   TEMP    WIND        PRES    VSBY
                                AIR SEA DIR/SP/G
                 (UTC)          (F)     (DEG/KT/KT) (MB)    (MI)
WAVELAND         1600            75 74  350/  3/  8 1009.1R
PASCAGOULA RGN A 1600            77     240/  6/  8 1008.0R
PASCAGOULA PORT  1600               76                N/A
GRAND ISLE       1600            79 78  340/  2/  3 1008.8R
SOUTHWEST PASS   1700            76     290/  4/  4 1008.4F
PILOT STATION E  1600            79 66  310/  3/  6 1009.4R
SHELL BEACH      1600            77 76  280/  4/  6 1008.5R
PANAMA CITY      1600            76 76  230/  8/  9 1008.3R
APALACHICOLA     1600            76 73  210/  6/  7 1008.7F
TYNDALL TOWER C  1700            74     250/  9/  9 1008.3F
S APLCHCLA/42036 1650            79 78  250/  6/  8 1009.4F
WVE H/P(F/S)=  4/ 7


$$



USA.gov is the U.S. government's official web portal to all federal, state and local government web resources and services.